Weather History for KDAL - September, 2012

Change the Weather History Date:

Saturday, September 1, 2012

  Actual Average Record
Temperature  
Mean Temperature 89 °F -  
Max Temperature 99 °F 91 °F 108 °F (2000)
Min Temperature 80 °F 72 °F 68 °F (2004)
Cooling Degree Days 24    
Growing Degree Days 39 (Base 50)    
Moisture  
Dew Point 68 °F    
Average Humidity 52    
Maximum Humidity 74    
Minimum Humidity 34    
Precipitation  
Precipitation 0.00 in - - ()
Sea Level Pressure  
Sea Level Pressure 29.95 in    
Wind  
Wind Speed 9 mph (SSW)    
Max Wind Speed 14 mph    
Max Gust Speed 21 mph    
Visibility 10 miles    
Events      
Averages and records for this station are not official NWS values.
T = Trace of Precipitation, MM = Missing Value Source: NWS Daily Summary

Daily Weather History Graph

Daily Weather History Graph

Search for Another Location

Airport or City:

Trip Planner

Search our weather history database for the weather conditions in past years. The results will help you decide how hot, cold, wet, or windy it might be!

Date:

Astronomy

Sep. 01, 2012 Rise Set
Actual Time 7:02 AM CDT 7:51 PM CDT
Civil Twilight 6:37 AM CDT 8:16 PM CDT
Nautical Twilight 6:07 AM CDT 8:46 PM CDT
Astronomical Twilight 5:37 AM CDT 9:16 PM CDT
Moon 8:17 PM CDT (9/1) 8:03 AM CDT (9/1)
Length of Visible Light 13h 39m
Length of Day
12h 49m
Full, 99% of the Moon is Illuminated
Sep 1
Full
Sep 8
Last Quarter
Sep 15
New
Sep 22
First Quarter
Sep 29
Full

Hourly Weather History & Observations

Time (CDT) Temp. Heat Index Dew Point Humidity Pressure Visibility Wind Dir Wind Speed Gust Speed Precip Events Conditions
12:53 AM 87.1 °F 90.6 °F 68.0 °F 53% 29.92 in 10.0 mi South 13.8 mph 20.7 mph N/A   Partly Cloudy
1:53 AM 86.0 °F 90.1 °F 69.1 °F 57% 29.93 in 10.0 mi South 11.5 mph - N/A   Scattered Clouds
2:53 AM 84.9 °F 88.8 °F 69.1 °F 59% 29.94 in 10.0 mi South 8.1 mph - N/A   Partly Cloudy
3:53 AM 84.0 °F 87.0 °F 68.0 °F 58% 29.95 in 10.0 mi South 9.2 mph - N/A   Clear
4:53 AM 82.9 °F 86.5 °F 69.1 °F 63% 29.96 in 10.0 mi South 8.1 mph - N/A   Scattered Clouds
5:53 AM 81.0 °F 84.4 °F 70.0 °F 69% 29.97 in 10.0 mi South 5.8 mph - N/A   Partly Cloudy
6:53 AM 80.1 °F 83.6 °F 71.1 °F 74% 29.99 in 10.0 mi SSW 4.6 mph - N/A   Scattered Clouds
7:53 AM 81.0 °F 84.9 °F 71.1 °F 72% 30.01 in 10.0 mi SSW 8.1 mph - N/A   Scattered Clouds
8:53 AM 82.0 °F 86.7 °F 72.0 °F 71% 30.01 in 10.0 mi SSW 9.2 mph - N/A   Scattered Clouds
9:53 AM 84.0 °F 89.6 °F 72.0 °F 67% 30.02 in 10.0 mi SW 10.4 mph - N/A   Scattered Clouds
10:53 AM 87.1 °F 92.8 °F 71.1 °F 59% 30.02 in 10.0 mi Variable 5.8 mph - N/A   Scattered Clouds
11:53 AM 90.0 °F 95.4 °F 70.0 °F 52% 30.02 in 10.0 mi SSW 5.8 mph - N/A   Scattered Clouds
12:53 PM 93.9 °F 98.6 °F 68.0 °F 43% 30.00 in 10.0 mi SSW 8.1 mph - N/A   Scattered Clouds
1:53 PM 96.1 °F 99.3 °F 66.0 °F 37% 29.97 in 10.0 mi SW 9.2 mph - N/A   Scattered Clouds
2:53 PM 97.0 °F 101.0 °F 66.9 °F 37% 29.95 in 10.0 mi SW 8.1 mph - N/A   Scattered Clouds
3:53 PM 98.1 °F 102.4 °F 66.9 °F 36% 29.92 in 10.0 mi SW 5.8 mph - N/A   Partly Cloudy
4:53 PM 98.1 °F 101.8 °F 66.0 °F 35% 29.91 in 10.0 mi South 11.5 mph 18.4 mph N/A   Partly Cloudy
5:53 PM 98.1 °F 101.2 °F 64.9 °F 34% 29.90 in 10.0 mi South 10.4 mph 18.4 mph N/A   Partly Cloudy
6:53 PM 97.0 °F 99.9 °F 64.9 °F 35% 29.90 in 10.0 mi South 10.4 mph - N/A   Scattered Clouds
7:53 PM 95.0 °F 97.4 °F 64.9 °F 37% 29.90 in 10.0 mi SSW 6.9 mph - N/A   Partly Cloudy
8:53 PM 91.9 °F 94.1 °F 64.9 °F 41% 29.91 in 10.0 mi South 6.9 mph - N/A   Partly Cloudy
9:53 PM 90.0 °F 91.7 °F 64.9 °F 43% 29.93 in 10.0 mi SSE 5.8 mph - N/A   Partly Cloudy
10:53 PM 89.1 °F 94.1 °F 70.0 °F 53% 29.94 in 10.0 mi South 8.1 mph - N/A   Partly Cloudy
11:53 PM 88.0 °F 92.9 °F 70.0 °F 55% 29.94 in 10.0 mi South 8.1 mph 18.4 mph N/A   Partly Cloudy